This is the latest recevied weather packets stored in our database for station/object KF4CQ. If no packets are shown the sender has not sent any weather packets the latest 10 day(s).
| Time | Temp. | Humidity | Pressure | Rain* | Wind** | Luminosity | Snow |
|---|---|---|---|---|---|---|---|
| 1777735514 | 28.33° C | 75% | 1011.7 hPa | 0 mm | - | 260 W/m² | - |
| 1777735211 | 27.78° C | 76% | 1011.8 hPa | 0 mm | - | 417 W/m² | - |
| 1777734907 | 28.33° C | 75% | 1011.8 hPa | 0 mm | - | 278 W/m² | - |
| 1777734605 | 27.22° C | 77% | 1011.6 hPa | 0 mm | - | 378 W/m² | - |
| 1777734302 | 26.67° C | 79% | 1011.5 hPa | 0 mm | - | 266 W/m² | - |
| 1777733997 | 26.67° C | 80% | 1011.7 hPa | 0 mm | - | 261 W/m² | - |
| 1777733695 | 26.11° C | 81% | 1012.1 hPa | 0 mm | - | 228 W/m² | - |
| 1777733391 | 25.56° C | 82% | 1012.2 hPa | 0 mm | - | 220 W/m² | - |
| 1777733088 | 25.56° C | 82% | 1012 hPa | 0 mm | - | 373 W/m² | - |
| 1777732784 | 25.56° C | 83% | 1011.9 hPa | 0 mm | - | 211 W/m² | - |
| 1777732481 | 25.56° C | 84% | 1011.9 hPa | 0 mm | - | 194 W/m² | - |
| 1777732178 | 25° C | 85% | 1012.1 hPa | 0 mm | - | 164 W/m² | - |
| 1777731875 | 25° C | 86% | 1012.2 hPa | 0 mm | - | 174 W/m² | - |
| 1777731572 | 24.44° C | 87% | 1012.3 hPa | 0 mm | - | 185 W/m² | - |
| 1777731270 | 24.44° C | 88% | 1012 hPa | 0 mm | - | 165 W/m² | - |
| 1777730967 | 23.89° C | 89% | 1012.2 hPa | 0 mm | - | 120 W/m² | - |
| 1777730666 | 23.89° C | 90% | 1012 hPa | 0 mm | - | 113 W/m² | - |
| 1777730361 | 23.89° C | 92% | 1012.2 hPa | 0 mm | - | 111 W/m² | - |
| 1777730058 | 23.33° C | 93% | 1012.1 hPa | 0 mm | - | 81 W/m² | - |
| 1777729754 | 23.33° C | 94% | 1012.1 hPa | 0 mm | - | 58 W/m² | - |
| 1777729451 | 23.33° C | 94% | 1012 hPa | 0 mm | - | 53 W/m² | - |
| 1777729148 | 23.33° C | 95% | 1012.1 hPa | 0 mm | - | 55 W/m² | - |
| 1777728844 | 23.33° C | 95% | 1012.2 hPa | 0 mm | - | 67 W/m² | - |
| 1777728541 | 23.33° C | 96% | 1012.1 hPa | 0 mm | - | 61 W/m² | - |
| 1777728239 | 23.33° C | 95% | 1012 hPa | 0 mm | - | 62 W/m² | - |
* Rain latest hour (hover to see other rain measurements)
** Current wind speed in m/s (hover to see current wind gust speed)